User: anonymous   Login
Location: Newark
(45.4422°N, 16.2769°E)
Time: 12:55:33
(UTC+00:00)
Language:

Transit 2A - Orbit

View from above orbital plane
View from above orbital plane
View from above satellite
View from above satellite

Ground track
Ground track

The orbit data is extracted from the following two-line orbital elements,

1    45U 60007A   19343.85975320 -.00000031 +00000-0 +19215-4 0  9998
2    45 066.6929 163.1633 0248135 094.5183 268.4306 14.33659165038514
Epoch (UTC): 09 December 2019 20:38:02
Eccentricity: 0.0248135
inclination: 66.6929°
perigee height: 602 km
apogee height: 957 km
right ascension of ascending node: 163.1633°
argument of perigee: 94.5183°
revolutions per day: 14.33659165
mean anomaly at epoch: 268.4306°
orbit number at epoch: 3851

The dashed part of the orbit path shows where the satellite is in the earth's shadow,  

DLR